Morgantown, WV

11:05 PM EST on February 12, 2016 (GMT -0500)
Morgantown Municipal-Hart

Weather History for KMGW - January, 2000

Change the Weather History Date:

Thursday, January 13, 2000

  Actual Average Record
Temperature  
Mean Temperature 37 °F 31 °F  
Max Temperature 53 °F 39 °F 72 °F (2005)
Min Temperature 19 °F 24 °F -12 °F (1977)
Degree Days  
Heating Degree Days 28 34  
Month to date heating degree days 439  
Since 1 July heating degree days 2423  
Cooling Degree Days 0 0  
Month to date cooling degree days 0  
Year to date cooling degree days 0  
Moisture  
Dew Point 28 °F    
Average Humidity 84    
Maximum Humidity 100    
Minimum Humidity 51    
Precipitation  
Precipitation 0.07 in 0.09 in 0.80 in (1975)
Month to date precipitation 1.17  
Year to date precipitation 1.17  
Sea Level Pressure  
Sea Level Pressure 30.11 in    
Wind  
Wind Speed 9 mph (WNW)    
Max Wind Speed 16 mph    
Max Gust Speed 29 mph    
Visibility 6 miles    
Events Rain , Snow    
T = Trace of Precipitation, MM = Missing Value Source: NWS Daily Summary

Daily Weather History Graph

Daily Weather History Graph

Search for Another Location

Airport or City:

Trip Planner

Search our weather history database for the weather conditions in past years. The results will help you decide how hot, cold, wet, or windy it might be!

Date:

Astronomy

Jan. 13, 2000 Rise Set
Actual Time 7:39 AM EST 5:17 PM EST
Civil Twilight 7:09 AM EST 5:46 PM EST
Nautical Twilight 6:36 AM EST 6:20 PM EST
Astronomical Twilight 6:04 AM EST 6:52 PM EST
Moon 11:41 AM EST No Moon Set
Length of Visible Light 10h 36m
Length of Day
9h 37m
Waxing Crescent, 41% of the Moon is Illuminated
Jan 13
Waxing Crescent
Jan 14
First Quarter
Jan 20
Full
Jan 28
Last Quarter
Feb 5
New

Hourly Weather History & Observations

Time (EST) Temp. Windchill Dew Point Humidity Pressure Visibility Wind Dir Wind Speed Gust Speed Precip Events Conditions
12:53 AM 41.0 °F 39.0 °F 24.1 °F 51% 29.86 in 10.0 mi WNW 3.5 mph - N/A   Overcast
1:53 AM 48.0 °F - 33.1 °F 56% 29.81 in 10.0 mi Variable 5.8 mph - N/A   Overcast
2:53 AM 53.1 °F - 42.1 °F 66% 29.76 in 10.0 mi SW 11.5 mph 23.0 mph 0.00 in   Overcast
3:53 AM 48.9 °F - 48.9 °F 100% 29.75 in 10.0 mi SW 11.5 mph 18.4 mph 0.04 in Rain Light Rain
4:07 AM 48.2 °F - 48.2 °F 100% 29.74 in 8.0 mi SW 6.9 mph 17.3 mph 0.01 in Rain Light Rain
4:53 AM 48.9 °F - 48.9 °F 100% 29.74 in 10.0 mi SW 10.4 mph - 0.01 in   Overcast
5:53 AM 50.0 °F - 50.0 °F 100% 29.75 in 10.0 mi SW 9.2 mph - N/A   Overcast
6:53 AM 51.1 °F - 48.9 °F 92% 29.76 in 10.0 mi West 12.7 mph 19.6 mph 0.00 in   Overcast
7:53 AM 50.0 °F - 45.0 °F 83% 29.77 in 10.0 mi WSW 12.7 mph 25.3 mph N/A   Overcast
8:04 AM 50.0 °F - 44.6 °F 82% 29.76 in 10.0 mi West 15.0 mph 27.6 mph N/A   Overcast
8:53 AM 48.0 °F - 39.9 °F 74% 29.79 in 10.0 mi West 13.8 mph 28.8 mph N/A   Mostly Cloudy
9:53 AM 45.0 °F 38.9 °F 37.9 °F 76% 29.83 in 10.0 mi WNW 12.7 mph 21.9 mph N/A   Mostly Cloudy
10:53 AM 42.1 °F 34.2 °F 30.0 °F 62% 29.88 in 10.0 mi West 16.1 mph 23.0 mph N/A   Overcast
11:28 AM 37.4 °F 29.8 °F 35.6 °F 93% 29.89 in 9.0 mi West 11.5 mph 20.7 mph 0.00 in Rain Light Rain
11:53 AM 37.9 °F 29.6 °F 34.0 °F 86% 29.95 in 8.0 mi NW 13.8 mph 23.0 mph 0.00 in Rain Light Rain
12:00 PM 33.8 °F 23.9 °F 33.8 °F 100% 29.93 in 1.5 mi NW 15.0 mph 21.9 mph 0.01 in Rain , Snow Snow
12:10 PM 33.8 °F 25.3 °F 33.8 °F 100% 29.94 in 1.5 mi NW 11.5 mph 23.0 mph 0.01 in Rain , Snow Light Snow
12:13 PM 33.8 °F 24.3 °F 33.8 °F 100% 29.95 in 0.8 mi NW 13.8 mph 23.0 mph 0.01 in Snow Light Snow
12:19 PM 33.8 °F 26.4 °F 32.0 °F 93% 29.95 in 1.0 mi NW 9.2 mph 21.9 mph 0.01 in Snow Light Snow
12:29 PM 33.8 °F 26.4 °F 33.8 °F 100% 29.95 in 1.5 mi NW 9.2 mph 17.3 mph 0.01 in Snow Light Snow
12:35 PM 33.8 °F 24.3 °F 32.0 °F 93% 29.96 in 2.0 mi WNW 13.8 mph 19.6 mph 0.02 in Snow Light Snow
12:44 PM 33.8 °F 25.3 °F 32.0 °F 93% 29.97 in 3.0 mi NW 11.5 mph 18.4 mph 0.02 in   Overcast
1:53 PM 33.1 °F 25.5 °F 28.0 °F 82% 30.05 in 9.0 mi NW 9.2 mph - 0.00 in   Overcast
2:32 PM 32.0 °F 23.6 °F 26.6 °F 80% 30.06 in 10.0 mi NW 10.4 mph 24.2 mph N/A   Overcast
2:42 PM 32.0 °F 24.8 °F 26.6 °F 80% 30.07 in 10.0 mi WNW 8.1 mph 20.7 mph N/A   Overcast
2:53 PM 30.9 °F 23.5 °F 27.0 °F 85% 30.11 in 9.0 mi NW 8.1 mph 16.1 mph 0.00 in   Overcast
3:53 PM 28.9 °F 21.1 °F 23.0 °F 78% 30.19 in 10.0 mi NNW 8.1 mph 20.7 mph 0.00 in Rain Light Freezing Rain
4:46 PM 28.4 °F 21.2 °F 21.2 °F 74% 30.22 in 10.0 mi Variable 6.9 mph - 0.00 in   Overcast
4:53 PM 28.0 °F 19.3 °F 19.9 °F 72% 30.25 in 10.0 mi NNW 9.2 mph 17.3 mph 0.00 in   Overcast
5:38 PM 28.4 °F 19.7 °F 21.2 °F 74% 30.25 in 8.0 mi NW 9.2 mph 16.1 mph 0.00 in Snow Light Snow
5:53 PM 27.0 °F 18.0 °F 24.1 °F 89% 30.29 in 6.0 mi WNW 9.2 mph 17.3 mph 0.00 in Snow Light Snow
6:00 PM 26.6 °F 18.2 °F 24.8 °F 93% 30.27 in 1.0 mi NW 8.1 mph - 0.00 in Snow Light Snow
6:06 PM 26.6 °F 18.2 °F 24.8 °F 93% 30.28 in 2.0 mi NW 8.1 mph - 0.00 in Snow Light Snow
6:22 PM 26.6 °F 19.1 °F 24.8 °F 93% 30.29 in 1.0 mi NW 6.9 mph 16.1 mph 0.01 in Snow Light Snow
6:27 PM 26.6 °F 20.0 °F 24.8 °F 93% 30.30 in 0.8 mi NW 5.8 mph - 0.01 in Snow Light Snow
6:34 PM 26.6 °F 20.0 °F 26.6 °F 100% 30.30 in 1.0 mi Variable 5.8 mph - 0.01 in Snow Light Snow
6:41 PM 26.6 °F 19.1 °F 23.0 °F 86% 30.31 in 3.0 mi Variable 6.9 mph - 0.01 in Snow Light Snow
6:53 PM 26.1 °F 16.8 °F 24.1 °F 92% 30.35 in 4.0 mi NW 9.2 mph 16.1 mph 0.01 in Snow Light Snow
6:55 PM 26.6 °F 20.0 °F 24.8 °F 93% 30.32 in 2.5 mi Variable 5.8 mph - 0.00 in Snow Light Snow
7:01 PM 24.8 °F 16.1 °F 24.8 °F 100% 30.33 in 1.0 mi NW 8.1 mph - 0.00 in Snow Light Snow
7:09 PM 24.8 °F 15.3 °F 21.2 °F 86% 30.34 in 2.0 mi NW 9.2 mph 18.4 mph 0.00 in Snow Light Snow
7:17 PM 24.8 °F 13.4 °F 19.4 °F 80% 30.34 in 7.0 mi NW 12.7 mph 18.4 mph 0.01 in Snow Light Snow
7:25 PM 24.8 °F 16.1 °F 19.4 °F 80% 30.35 in 3.0 mi NW 8.1 mph 18.4 mph 0.01 in Snow Light Snow
7:44 PM 23.0 °F 10.6 °F 19.4 °F 86% 30.37 in 3.0 mi NNW 13.8 mph 20.7 mph 0.01 in Snow Light Snow
7:53 PM 23.0 °F 11.7 °F 17.1 °F 78% 30.40 in 3.0 mi NNW 11.5 mph 20.7 mph 0.01 in Snow Light Snow
8:09 PM 23.0 °F 13.9 °F 17.6 °F 80% 30.38 in 5.0 mi NNW 8.1 mph 16.1 mph 0.00 in Snow Light Snow
8:53 PM 23.0 °F 12.4 °F 17.1 °F 78% 30.43 in 9.0 mi NW 10.4 mph 17.3 mph 0.00 in Snow Light Snow
9:05 PM 23.0 °F 13.9 °F 15.8 °F 74% 30.40 in 9.0 mi NW 8.1 mph - 0.00 in Snow Light Snow
9:26 PM 21.2 °F 12.6 °F 10.4 °F 63% 30.41 in 9.0 mi Variable 6.9 mph 16.1 mph 0.00 in Snow Light Snow
9:53 PM 21.9 °F 12.5 °F 10.9 °F 63% 30.46 in 9.0 mi NW 8.1 mph 17.3 mph 0.00 in Snow Light Snow
10:53 PM 21.0 °F 14.6 °F 10.9 °F 65% 30.50 in 9.0 mi Variable 4.6 mph - 0.00 in Snow Light Snow
11:53 PM 19.0 °F 7.5 °F 9.0 °F 65% 30.53 in 10.0 mi NW 10.4 mph 17.3 mph 0.00 in   Scattered Clouds